,,,PA_Meas_PMT16A,,PR_Meas_QMR101_102,,RH_Meas_QMH101,,SR_Meas_QMS101,,TA_Meas_QMH101,,GenWind,,GenWind,
date,time,status,PA,status,PR,status,RH,status,SR,status,TA,status,DirAvg,status,SpdAvg,
2014-05-08, 00:00:05,VALID,1010.19,VALID,0,INVALID,109.315,VALID,0,VALID,24.8633,VALID,275,VALID,0,
2014-05-08, 00:01:05,VALID,1010.21,VALID,0,INVALID,109.414,VALID,0.112112,VALID,24.8828,VALID,275,VALID,0,
2014-05-08, 00:02:05,VALID,1010.2,VALID,0,INVALID,109.445,VALID,0.112112,VALID,24.8828,VALID,275,VALID,0,
2014-05-08, 00:03:05,VALID,1010.2,VALID,0,INVALID,109.391,VALID,0.112112,VALID,24.8828,VALID,275,VALID,0,
2014-05-08, 00:04:05,VALID,1010.18,VALID,0,INVALID,109.391,VALID,0.112112,VALID,24.8809,VALID,275,VALID,0,
2014-05-08, 00:05:05,VALID,1010.14,VALID,0,INVALID,109.422,VALID,0,VALID,24.8828,VALID,275,VALID,0,
2014-05-08, 00:06:05,VALID,1010.09,VALID,0,INVALID,109.399,VALID,0,VALID,24.8828,VALID,275,VALID,0,
2014-05-08, 00:07:05,VALID,1010.1,VALID,0,INVALID,109.369,VALID,0.112112,VALID,24.8828,VALID,275,VALID,0,
2014-05-08, 00:08:05,VALID,1010.1,VALID,0,INVALID,109.384,VALID,0.112112,VALID,24.8828,VALID,275,VALID,0,
2014-05-08, 00:09:05,VALID,1010.07,VALID,0,INVALID,109.369,VALID,0.112112,VALID,24.8809,VALID,275,VALID,0,
2014-05-08, 00:10:05,VALID,1010.04,VALID,0,INVALID,109.361,VALID,0.112112,VALID,24.9023,VALID,275,VALID,0,
2014-05-08, 00:11:05,VALID,1010.05,VALID,0,INVALID,109.277,VALID,0.112112,VALID,24.9023,VALID,275,VALID,0,
2014-05-08, 00:12:05,VALID,1010.04,VALID,0,INVALID,109.247,VALID,0,VALID,24.9023,VALID,275,VALID,0,
2014-05-08, 00:13:05,VALID,1010.02,VALID,0,INVALID,109.193,VALID,0,VALID,24.9218,VALID,275,VALID,0,
2014-05-08, 00:14:05,VALID,1010.03,VALID,0,INVALID,109.17,VALID,0.112112,VALID,24.9004,VALID,275,VALID,0,
2014-05-08, 00:15:05,VALID,1009.98,VALID,0,INVALID,109.178,VALID,0.112112,VALID,24.9218,VALID,275,VALID,0,
2014-05-08, 00:16:05,VALID,1009.99,VALID,0,INVALID,109.186,VALID,0.112112,VALID,24.9218,VALID,275,VALID,0,
2014-05-08, 00:17:05,VALID,1009.97,VALID,0,INVALID,109.201,VALID,0.112112,VALID,24.9004,VALID,275,VALID,0,
2014-05-08, 00:18:05,VALID,1009.98,VALID,0,INVALID,109.231,VALID,0,VALID,24.9432,VALID,275,VALID,0,
2014-05-08, 00:19:05,VALID,1009.98,VALID,0,INVALID,109.285,VALID,0.112112,VALID,24.9023,VALID,275,VALID,0,
2014-05-08, 00:20:05,VALID,1009.98,VALID,0,INVALID,109.308,VALID,0,VALID,24.9218,VALID,275,VALID,0,
2014-05-08, 00:21:05,VALID,1009.96,VALID,0,INVALID,109.346,VALID,0,VALID,24.9023,VALID,275,VALID,0,
2014-05-08, 00:22:05,VALID,1009.9,VALID,0,INVALID,109.308,VALID,0,VALID,24.9023,VALID,275,VALID,0,
2014-05-08, 00:23:05,VALID,1009.91,VALID,0,INVALID,109.292,VALID,0.112112,VALID,24.9218,VALID,275,VALID,0,
2014-05-08, 00:24:05,VALID,1009.85,VALID,0,INVALID,109.269,VALID,0,VALID,24.9023,VALID,275,VALID,0,
2014-05-08, 00:25:05,VALID,1009.85,VALID,0,INVALID,109.323,VALID,0.112112,VALID,24.9023,VALID,275,VALID,0,
2014-05-08, 00:26:05,VALID,1009.83,VALID,0,INVALID,109.338,VALID,0,VALID,24.9023,VALID,275,VALID,0,
2014-05-08, 00:27:05,VALID,1009.85,VALID,0,INVALID,109.422,VALID,0,VALID,24.9023,VALID,275,VALID,0,
2014-05-08, 00:28:05,VALID,1009.81,VALID,0,INVALID,109.475,VALID,0,VALID,24.8828,VALID,275,VALID,0,
2014-05-08, 00:29:05,VALID,1009.83,VALID,0,INVALID,109.475,VALID,0,VALID,24.8828,VALID,275,VALID,0,
2014-05-08, 00:30:05,VALID,1009.84,VALID,0,INVALID,109.498,VALID,0.112112,VALID,24.8633,VALID,275,VALID,0,
2014-05-08, 00:31:05,VALID,1009.81,VALID,0,INVALID,109.521,VALID,0,VALID,24.8633,VALID,275,VALID,0,
2014-05-08, 00:32:05,VALID,1009.82,VALID,0,INVALID,109.552,VALID,0,VALID,24.8633,VALID,275,VALID,0,
2014-05-08, 00:33:05,VALID,1009.87,VALID,0,INVALID,109.613,VALID,0,VALID,24.8633,VALID,275,VALID,0,
2014-05-08, 00:34:05,VALID,1009.85,VALID,0,INVALID,109.712,VALID,0,VALID,24.8438,VALID,275,VALID,0,
2014-05-08, 00:35:05,VALID,1009.84,VALID,0,INVALID,109.75,VALID,0,VALID,24.8438,VALID,275,VALID,0,
2014-05-08, 00:36:05,VALID,1009.83,VALID,0,INVALID,109.826,VALID,0.112112,VALID,24.8225,VALID,275,VALID,0,
2014-05-08, 00:37:05,VALID,1009.8,VALID,0,INVALID,109.872,VALID,0.112112,VALID,24.8244,VALID,275,VALID,0,
2014-05-08, 00:38:05,VALID,1009.78,VALID,0,INVALID,109.94,VALID,0,VALID,24.8457,VALID,275,VALID,0,
2014-05-08, 00:39:05,VALID,1009.77,VALID,0,INVALID,110.001,VALID,0.112112,VALID,24.8049,VALID,275,VALID,0,
2014-05-08, 00:40:04,VALID,1009.76,VALID,0,INVALID,110.07,VALID,0,VALID,24.7854,VALID,275,VALID,0,
2014-05-08, 00:41:04,VALID,1009.71,VALID,0,INVALID,110.085,VALID,0,VALID,24.7659,VALID,275,VALID,0,
2014-05-08, 00:42:04,VALID,1009.69,VALID,0,INVALID,110.101,VALID,0,VALID,24.7659,VALID,275,VALID,0,
2014-05-08, 00:43:04,VALID,1009.68,VALID,0,INVALID,110.093,VALID,0,VALID,24.7464,VALID,275,VALID,0,
2014-05-08, 00:44:04,VALID,1009.67,VALID,0,INVALID,110.139,VALID,0,VALID,24.7464,VALID,275,VALID,0,
2014-05-08, 00:45:04,VALID,1009.69,VALID,0,INVALID,110.2,VALID,0,VALID,24.7464,VALID,275,VALID,0,
2014-05-08, 00:46:04,VALID,1009.67,VALID,0,INVALID,110.223,VALID,0,VALID,24.7464,VALID,275,VALID,0,
2014-05-08, 00:47:04,VALID,1009.66,VALID,0,INVALID,110.246,VALID,0,VALID,24.7074,VALID,275,VALID,0,
2014-05-08, 00:48:04,VALID,1009.61,VALID,0,INVALID,110.261,VALID,0.112112,VALID,24.7074,VALID,275,VALID,0,
2014-05-08, 00:49:04,VALID,1009.61,VALID,0,INVALID,110.253,VALID,0,VALID,24.7074,VALID,275,VALID,0,
2014-05-08, 00:50:04,VALID,1009.56,VALID,0,INVALID,110.276,VALID,0,VALID,24.7074,VALID,275,VALID,0,
2014-05-08, 00:51:04,VALID,1009.53,VALID,0,INVALID,110.299,VALID,0,VALID,24.7269,VALID,275,VALID,0,
2014-05-08, 00:52:04,VALID,1009.53,VALID,0,INVALID,110.291,VALID,0,VALID,24.7074,VALID,275,VALID,0,
2014-05-08, 00:53:04,VALID,1009.55,VALID,0,INVALID,110.322,VALID,0,VALID,24.6879,VALID,275,VALID,0,
2014-05-08, 00:54:04,VALID,1009.49,VALID,0,INVALID,110.322,VALID,0,VALID,24.6879,VALID,275,VALID,0,
2014-05-08, 00:55:04,VALID,1009.53,VALID,0,INVALID,110.345,VALID,0.112112,VALID,24.6684,VALID,275,VALID,0,
2014-05-08, 00:56:04,VALID,1009.53,VALID,0,INVALID,110.383,VALID,0.112112,VALID,24.6489,VALID,275,VALID,0,
2014-05-08, 00:57:04,VALID,1009.55,VALID,0,INVALID,110.421,VALID,0,VALID,24.6294,VALID,275,VALID,0,
2014-05-08, 00:58:04,VALID,1009.53,VALID,0,INVALID,110.459,VALID,0,VALID,24.6294,VALID,275,VALID,0,
2014-05-08, 00:59:04,VALID,1009.51,VALID,0,INVALID,110.505,VALID,0,VALID,24.6099,VALID,275,VALID,0,
2014-05-08, 01:00:04,VALID,1009.46,VALID,0,INVALID,110.505,VALID,0.112112,VALID,24.6099,VALID,275,VALID,0,
2014-05-08, 01:01:04,VALID,1009.43,VALID,0,INVALID,110.551,VALID,0,VALID,24.5905,VALID,275,VALID,0,
2014-05-08, 01:02:04,VALID,1009.41,VALID,0,INVALID,110.558,VALID,0,VALID,24.5905,VALID,275,VALID,0,
2014-05-08, 01:03:04,VALID,1009.38,VALID,0,INVALID,110.596,VALID,0.112112,VALID,24.6099,VALID,275,VALID,0,
2014-05-08, 01:04:04,VALID,1009.34,VALID,0,INVALID,110.589,VALID,0,VALID,24.5905,VALID,275,VALID,0,
2014-05-08, 01:05:04,VALID,1009.31,VALID,0,INVALID,110.65,VALID,0,VALID,24.5905,VALID,275,VALID,0,
2014-05-08, 01:06:04,VALID,1009.29,VALID,0,INVALID,110.657,VALID,0.112112,VALID,24.5905,VALID,275,VALID,0,
2014-05-08, 01:07:04,VALID,1009.25,VALID,0,INVALID,110.688,VALID,0,VALID,24.5905,VALID,275,VALID,0,
2014-05-08, 01:08:04,VALID,1009.23,VALID,0,INVALID,110.688,VALID,0,VALID,24.5905,VALID,275,VALID,0,
2014-05-08, 01:09:04,VALID,1009.18,VALID,0,INVALID,110.734,VALID,0,VALID,24.571,VALID,275,VALID,0,
2014-05-08, 01:10:04,VALID,1009.18,VALID,0,INVALID,110.749,VALID,0.112112,VALID,24.571,VALID,275,VALID,0,
2014-05-08, 01:11:04,VALID,1009.15,VALID,0,INVALID,110.772,VALID,0,VALID,24.5691,VALID,275,VALID,0,
2014-05-08, 01:12:04,VALID,1009.14,VALID,0,INVALID,110.795,VALID,0.112112,VALID,24.6099,VALID,275,VALID,0,
2014-05-08, 01:13:04,VALID,1009.1,VALID,0,INVALID,110.833,VALID,0,VALID,24.5905,VALID,275,VALID,0,
2014-05-08, 01:14:04,VALID,1009.1,VALID,0,INVALID,110.833,VALID,0.112112,VALID,24.5905,VALID,275,VALID,0,
2014-05-08, 01:15:04,VALID,1009.1,VALID,0,INVALID,110.817,VALID,0,VALID,24.5905,VALID,275,VALID,0,
2014-05-08, 01:16:04,VALID,1009.08,VALID,0,INVALID,110.84,VALID,0.112112,VALID,24.571,VALID,275,VALID,0,
2014-05-08, 01:17:04,VALID,1009.02,VALID,0,INVALID,110.81,VALID,0,VALID,24.571,VALID,275,VALID,0,
2014-05-08, 01:18:04,VALID,1009,VALID,0,INVALID,110.81,VALID,0.112112,VALID,24.5496,VALID,275,VALID,0,
2014-05-08, 01:19:04,VALID,1008.94,VALID,0,INVALID,110.802,VALID,0.112112,VALID,24.5515,VALID,275,VALID,0,
2014-05-08, 01:20:04,VALID,1008.95,VALID,0,INVALID,110.848,VALID,0.112112,VALID,24.532,VALID,275,VALID,0,
2014-05-08, 01:21:04,VALID,1008.9,VALID,0,INVALID,110.848,VALID,0,VALID,24.5125,VALID,275,VALID,0,
2014-05-08, 01:22:04,VALID,1008.92,VALID,0,INVALID,110.833,VALID,0,VALID,24.5125,VALID,275,VALID,0,
2014-05-08, 01:23:04,VALID,1008.89,VALID,0,INVALID,110.817,VALID,0,VALID,24.493,VALID,275,VALID,0,
2014-05-08, 01:24:04,VALID,1008.87,VALID,0,INVALID,110.848,VALID,0,VALID,24.4735,VALID,275,VALID,0,
2014-05-08, 01:25:04,VALID,1008.84,VALID,0,INVALID,110.863,VALID,0.112112,VALID,24.493,VALID,275,VALID,0,
2014-05-08, 01:26:04,VALID,1008.79,VALID,0,INVALID,110.863,VALID,0,VALID,24.4735,VALID,275,VALID,0,
2014-05-08, 01:27:04,VALID,1008.76,VALID,0,INVALID,110.878,VALID,0,VALID,24.493,VALID,275,VALID,0,
2014-05-08, 01:28:04,VALID,1008.73,VALID,0,INVALID,110.871,VALID,0,VALID,24.493,VALID,275,VALID,0,
2014-05-08, 01:29:04,VALID,1008.69,VALID,0,INVALID,110.909,VALID,0.112112,VALID,24.5125,VALID,275,VALID,0,
2014-05-08, 01:30:04,VALID,1008.68,VALID,0,INVALID,110.924,VALID,0,VALID,24.5125,VALID,275,VALID,0,
2014-05-08, 01:31:04,VALID,1008.66,VALID,0,INVALID,110.909,VALID,0.112112,VALID,24.532,VALID,275,VALID,0,
2014-05-08, 01:32:04,VALID,1008.67,VALID,0,INVALID,110.924,VALID,0,VALID,24.532,VALID,275,VALID,0,
2014-05-08, 01:33:04,VALID,1008.67,VALID,0,INVALID,110.939,VALID,0,VALID,24.532,VALID,275,VALID,0,
2014-05-08, 01:34:04,VALID,1008.67,VALID,0,INVALID,110.932,VALID,0,VALID,24.5125,VALID,275,VALID,0,
2014-05-08, 01:35:04,VALID,1008.66,VALID,0,INVALID,110.917,VALID,0,VALID,24.532,VALID,275,VALID,0,
2014-05-08, 01:36:04,VALID,1008.64,VALID,0,INVALID,110.917,VALID,0,VALID,24.5515,VALID,275,VALID,0,
2014-05-08, 01:37:04,VALID,1008.62,VALID,0,INVALID,110.894,VALID,0,VALID,24.571,VALID,275,VALID,0,
2014-05-08, 01:38:04,VALID,1008.62,VALID,0,INVALID,110.924,VALID,0,VALID,24.6099,VALID,275,VALID,0,
2014-05-08, 01:39:04,VALID,1008.6,VALID,0,INVALID,110.917,VALID,0,VALID,24.6294,VALID,275,VALID,0,
2014-05-08, 01:40:04,VALID,1008.62,VALID,0,INVALID,110.924,VALID,0.112112,VALID,24.6684,VALID,275,VALID,0,
2014-05-08, 01:41:04,VALID,1008.61,VALID,0,INVALID,110.962,VALID,0.112112,VALID,24.7074,VALID,275,VALID,0,
2014-05-08, 01:42:04,VALID,1008.62,VALID,0,INVALID,110.894,VALID,0,VALID,24.7269,VALID,275,VALID,0,
2014-05-08, 01:43:04,VALID,1008.61,VALID,0,INVALID,110.856,VALID,0.112112,VALID,24.725,VALID,275,VALID,0,
2014-05-08, 01:44:04,VALID,1008.61,VALID,0,INVALID,110.81,VALID,0.112112,VALID,24.7678,VALID,275,VALID,0,
2014-05-08, 01:45:04,VALID,1008.6,VALID,0,INVALID,110.779,VALID,0.112112,VALID,24.7659,VALID,275,VALID,0,
2014-05-08, 01:46:04,VALID,1008.6,VALID,0,INVALID,110.787,VALID,0,VALID,24.7659,VALID,275,VALID,0,
2014-05-08, 01:47:04,VALID,1008.59,VALID,0,INVALID,110.734,VALID,0.112112,VALID,24.7659,VALID,275,VALID,0,
2014-05-08, 01:48:04,VALID,1008.61,VALID,0,INVALID,110.711,VALID,0.112112,VALID,24.7445,VALID,275,VALID,0,
2014-05-08, 01:49:04,VALID,1008.58,VALID,0,INVALID,110.673,VALID,0,VALID,24.7678,VALID,275,VALID,0,
2014-05-08, 01:50:04,VALID,1008.58,VALID,0,INVALID,110.65,VALID,0,VALID,24.7678,VALID,275,VALID,0,
2014-05-08, 01:51:04,VALID,1008.56,VALID,0,INVALID,110.596,VALID,0,VALID,24.7483,VALID,275,VALID,0,
2014-05-08, 01:52:04,VALID,1008.55,VALID,0,INVALID,110.619,VALID,0,VALID,24.7678,VALID,275,VALID,0,
2014-05-08, 01:53:04,VALID,1008.55,VALID,0,INVALID,110.596,VALID,0,VALID,24.7483,VALID,275,VALID,0,
2014-05-08, 01:54:04,VALID,1008.52,VALID,0,INVALID,110.558,VALID,0,VALID,24.7288,VALID,275,VALID,0,
2014-05-08, 01:55:04,VALID,1008.49,VALID,0,INVALID,110.52,VALID,0,VALID,24.6898,VALID,275,VALID,0,
2014-05-08, 01:56:04,VALID,1008.48,VALID,0,INVALID,110.558,VALID,0,VALID,24.7093,VALID,275,VALID,0,
2014-05-08, 01:57:04,VALID,1008.51,VALID,0,INVALID,110.566,VALID,0,VALID,24.6898,VALID,275,VALID,0,
2014-05-08, 01:58:04,VALID,1008.52,VALID,0,INVALID,110.589,VALID,0,VALID,24.6898,VALID,275,VALID,0,
2014-05-08, 01:59:04,VALID,1008.49,VALID,0,INVALID,110.573,VALID,0,VALID,24.6703,VALID,275,VALID,0,
2014-05-08, 02:00:04,VALID,1008.5,VALID,0,INVALID,110.634,VALID,0,VALID,24.6508,VALID,275,VALID,0,
2014-05-08, 02:01:04,VALID,1008.53,VALID,0,INVALID,110.65,VALID,0,VALID,24.6508,VALID,275,VALID,0,
2014-05-08, 02:02:04,VALID,1008.5,VALID,0,INVALID,110.65,VALID,0,VALID,24.6313,VALID,275,VALID,0,
2014-05-08, 02:03:04,VALID,1008.52,VALID,0,INVALID,110.688,VALID,0,VALID,24.6313,VALID,275,VALID,0,
2014-05-08, 02:04:04,VALID,1008.49,VALID,0,INVALID,110.711,VALID,0.112112,VALID,24.6294,VALID,275,VALID,0,
2014-05-08, 02:05:04,VALID,1008.5,VALID,0,INVALID,110.726,VALID,0,VALID,24.6081,VALID,275,VALID,0,
2014-05-08, 02:06:04,VALID,1008.49,VALID,0,INVALID,110.726,VALID,0.112112,VALID,24.6099,VALID,275,VALID,0,
2014-05-08, 02:07:04,VALID,1008.47,VALID,0,INVALID,110.749,VALID,0.112112,VALID,24.6099,VALID,275,VALID,0,
2014-05-08, 02:08:04,VALID,1008.46,VALID,0,INVALID,110.749,VALID,0.112112,VALID,24.6099,VALID,275,VALID,0,
2014-05-08, 02:09:04,VALID,1008.45,VALID,0,INVALID,110.749,VALID,0.112112,VALID,24.6099,VALID,275,VALID,0,
2014-05-08, 02:10:04,VALID,1008.47,VALID,0,INVALID,110.795,VALID,0.112112,VALID,24.5886,VALID,275,VALID,0,
2014-05-08, 02:11:04,VALID,1008.46,VALID,0,INVALID,110.81,VALID,0.112112,VALID,24.5905,VALID,275,VALID,0,
2014-05-08, 02:12:04,VALID,1008.48,VALID,0,INVALID,110.795,VALID,0.112112,VALID,24.6099,VALID,275,VALID,0,
2014-05-08, 02:13:04,VALID,1008.49,VALID,0,INVALID,110.817,VALID,0.112112,VALID,24.5905,VALID,275,VALID,0,
2014-05-08, 02:14:04,VALID,1008.46,VALID,0,INVALID,110.825,VALID,0.112112,VALID,24.5905,VALID,275,VALID,0,
2014-05-08, 02:15:04,VALID,1008.47,VALID,0,INVALID,110.825,VALID,0,VALID,24.6099,VALID,275,VALID,0,
2014-05-08, 02:16:04,VALID,1008.47,VALID,0,INVALID,110.848,VALID,0,VALID,24.5905,VALID,275,VALID,0,
2014-05-08, 02:17:04,VALID,1008.47,VALID,0,INVALID,110.886,VALID,0.112112,VALID,24.5905,VALID,275,VALID,0,
2014-05-08, 02:18:04,VALID,1008.46,VALID,0,INVALID,110.886,VALID,0,VALID,24.5515,VALID,275,VALID,0,
2014-05-08, 02:19:04,VALID,1008.45,VALID,0,INVALID,110.878,VALID,0.112112,VALID,24.5515,VALID,275,VALID,0,
2014-05-08, 02:20:04,VALID,1008.45,VALID,0,INVALID,110.856,VALID,0.112112,VALID,24.532,VALID,275,VALID,0,
2014-05-08, 02:21:04,VALID,1008.45,VALID,0,INVALID,110.878,VALID,0.112112,VALID,24.5515,VALID,275,VALID,0,
2014-05-08, 02:22:04,VALID,1008.45,VALID,0,INVALID,110.878,VALID,0.112112,VALID,24.5515,VALID,275,VALID,0,
2014-05-08, 02:23:04,VALID,1008.46,VALID,0,INVALID,110.886,VALID,0.112112,VALID,24.532,VALID,275,VALID,0,
2014-05-08, 02:24:04,VALID,1008.47,VALID,0,INVALID,110.917,VALID,0.112112,VALID,24.5515,VALID,275,VALID,0,
2014-05-08, 02:25:04,VALID,1008.47,VALID,0,INVALID,110.917,VALID,0.112112,VALID,24.5301,VALID,275,VALID,0,
2014-05-08, 02:26:04,VALID,1008.45,VALID,0,INVALID,110.901,VALID,0.112112,VALID,24.5106,VALID,275,VALID,0,
2014-05-08, 02:27:04,VALID,1008.47,VALID,0,INVALID,110.932,VALID,0.112112,VALID,24.5125,VALID,275,VALID,0,
2014-05-08, 02:28:04,VALID,1008.45,VALID,0,INVALID,110.947,VALID,0,VALID,24.532,VALID,275,VALID,0,
2014-05-08, 02:29:04,VALID,1008.44,VALID,0,INVALID,110.932,VALID,0.112112,VALID,24.4717,VALID,275,VALID,0,
2014-05-08, 02:30:04,VALID,1008.38,VALID,0,INVALID,110.924,VALID,0.112112,VALID,24.5125,VALID,275,VALID,0,
2014-05-08, 02:31:04,VALID,1008.39,VALID,0,INVALID,110.924,VALID,0.112112,VALID,24.493,VALID,275,VALID,0,
2014-05-08, 02:32:04,VALID,1008.36,VALID,0,INVALID,110.932,VALID,0.112112,VALID,24.4735,VALID,275,VALID,0,
2014-05-08, 02:33:04,VALID,1008.37,VALID,0,INVALID,110.924,VALID,0.112112,VALID,24.4717,VALID,275,VALID,0,
2014-05-08, 02:34:04,VALID,1008.34,VALID,0,INVALID,110.978,VALID,0,VALID,24.4949,VALID,275,VALID,0,
2014-05-08, 02:35:04,VALID,1008.32,VALID,0,INVALID,110.947,VALID,0,VALID,24.5144,VALID,275,VALID,0,
2014-05-08, 02:36:04,VALID,1008.28,VALID,0,INVALID,110.978,VALID,0,VALID,24.5338,VALID,275,VALID,0,
2014-05-08, 02:37:04,VALID,1008.29,VALID,0,INVALID,110.947,VALID,0,VALID,24.493,VALID,275,VALID,0,
2014-05-08, 02:38:04,VALID,1008.25,VALID,0,INVALID,110.962,VALID,0,VALID,24.493,VALID,275,VALID,0,
2014-05-08, 02:39:04,VALID,1008.27,VALID,0,INVALID,110.962,VALID,0,VALID,24.4949,VALID,275,VALID,0,
2014-05-08, 02:40:04,VALID,1008.24,VALID,0,INVALID,111.016,VALID,0,VALID,24.4735,VALID,275,VALID,0,
2014-05-08, 02:41:04,VALID,1008.26,VALID,0,INVALID,110.993,VALID,0,VALID,24.4754,VALID,275,VALID,0,
2014-05-08, 02:42:04,VALID,1008.29,VALID,0,INVALID,111,VALID,0,VALID,24.4949,VALID,275,VALID,0,
2014-05-08, 02:43:04,VALID,1008.29,VALID,0,INVALID,111,VALID,0,VALID,24.4735,VALID,275,VALID,0,
2014-05-08, 02:44:04,VALID,1008.32,VALID,0,INVALID,110.978,VALID,0,VALID,24.4949,VALID,275,VALID,0,
2014-05-08, 02:45:04,VALID,1008.34,VALID,0,INVALID,110.985,VALID,0,VALID,24.4754,VALID,275,VALID,0,
2014-05-08, 02:46:04,VALID,1008.34,VALID,0,INVALID,110.978,VALID,0,VALID,24.4735,VALID,275,VALID,0,
2014-05-08, 02:47:04,VALID,1008.36,VALID,0,INVALID,110.978,VALID,0,VALID,24.4949,VALID,275,VALID,0,
2014-05-08, 02:48:04,VALID,1008.37,VALID,0,INVALID,110.993,VALID,0,VALID,24.4949,VALID,275,VALID,0,
2014-05-08, 02:49:04,VALID,1008.38,VALID,0,INVALID,111,VALID,0,VALID,24.5144,VALID,275,VALID,0,
2014-05-08, 02:50:04,VALID,1008.39,VALID,0,INVALID,110.985,VALID,0,VALID,24.5338,VALID,275,VALID,0,
2014-05-08, 02:51:04,VALID,1008.4,VALID,0,INVALID,110.993,VALID,0,VALID,24.5144,VALID,275,VALID,0,
2014-05-08, 02:52:04,VALID,1008.39,VALID,0,INVALID,110.985,VALID,0,VALID,24.5144,VALID,275,VALID,0,
2014-05-08, 02:53:04,VALID,1008.42,VALID,0,INVALID,110.962,VALID,0,VALID,24.5144,VALID,275,VALID,0,
2014-05-08, 02:54:04,VALID,1008.45,VALID,0,INVALID,110.978,VALID,0,VALID,24.5144,VALID,275,VALID,0,
2014-05-08, 02:55:04,VALID,1008.44,VALID,0,INVALID,110.978,VALID,0,VALID,24.5125,VALID,275,VALID,0,
2014-05-08, 02:56:04,VALID,1008.46,VALID,0,INVALID,110.978,VALID,0,VALID,24.4735,VALID,275,VALID,0,
2014-05-08, 02:57:04,VALID,1008.47,VALID,0,INVALID,111,VALID,0,VALID,24.4949,VALID,275,VALID,0,
2014-05-08, 02:58:04,VALID,1008.47,VALID,0,INVALID,111,VALID,0,VALID,24.4754,VALID,275,VALID,0,
2014-05-08, 02:59:04,VALID,1008.46,VALID,0,INVALID,110.993,VALID,0,VALID,24.4345,VALID,275,VALID,0,
2014-05-08, 03:00:04,VALID,1008.49,VALID,0,INVALID,110.985,VALID,0,VALID,24.4364,VALID,275,VALID,0,
2014-05-08, 03:01:04,VALID,1008.49,VALID,0,INVALID,110.962,VALID,0,VALID,24.4559,VALID,275,VALID,0,
2014-05-08, 03:02:04,VALID,1008.51,VALID,0,INVALID,110.962,VALID,0,VALID,24.4559,VALID,275,VALID,0,
2014-05-08, 03:03:04,VALID,1008.57,VALID,0,INVALID,110.985,VALID,0,VALID,24.4559,VALID,275,VALID,0,
2014-05-08, 03:04:04,VALID,1008.58,VALID,0,INVALID,110.985,VALID,0,VALID,24.4559,VALID,275,VALID,0,
2014-05-08, 03:05:04,VALID,1008.58,VALID,0,INVALID,110.985,VALID,0,VALID,24.4559,VALID,275,VALID,0,
2014-05-08, 03:06:04,VALID,1008.62,VALID,0,INVALID,111.023,VALID,0,VALID,24.4559,VALID,275,VALID,0,
2014-05-08, 03:07:04,VALID,1008.61,VALID,0,INVALID,111.016,VALID,0,VALID,24.4559,VALID,275,VALID,0,
2014-05-08, 03:08:04,VALID,1008.63,VALID,0,INVALID,111.008,VALID,0,VALID,24.415,VALID,275,VALID,0,
2014-05-08, 03:09:04,VALID,1008.6,VALID,0,INVALID,111,VALID,0,VALID,24.4169,VALID,276,VALID,0,
2014-05-08, 03:10:04,VALID,1008.59,VALID,0,INVALID,111.016,VALID,0,VALID,24.415,VALID,276,VALID,0,
2014-05-08, 03:11:04,VALID,1008.56,VALID,0,INVALID,111.016,VALID,0,VALID,24.4169,VALID,276,VALID,0,
2014-05-08, 03:12:04,VALID,1008.54,VALID,0,INVALID,110.993,VALID,0,VALID,24.3956,VALID,276,VALID,0,
2014-05-08, 03:13:04,VALID,1008.54,VALID,0,INVALID,111.008,VALID,0,VALID,24.4169,VALID,276,VALID,0,
2014-05-08, 03:14:04,VALID,1008.52,VALID,0,INVALID,111.046,VALID,0,VALID,24.3956,VALID,276,VALID,0,
2014-05-08, 03:15:04,VALID,1008.53,VALID,0,INVALID,111.023,VALID,0,VALID,24.3974,VALID,276,VALID,0,
2014-05-08, 03:16:04,VALID,1008.5,VALID,0,INVALID,111.016,VALID,0,VALID,24.3974,VALID,276,VALID,0,
2014-05-08, 03:17:04,VALID,1008.5,VALID,0,INVALID,111.016,VALID,0,VALID,24.3956,VALID,276,VALID,0,
2014-05-08, 03:18:04,VALID,1008.46,VALID,0,INVALID,111.031,VALID,0,VALID,24.3761,VALID,276,VALID,0,
2014-05-08, 03:19:04,VALID,1008.44,VALID,0,INVALID,111.023,VALID,0.112112,VALID,24.3956,VALID,276,VALID,0,
2014-05-08, 03:20:04,VALID,1008.41,VALID,0,INVALID,111.031,VALID,0,VALID,24.3974,VALID,276,VALID,0,
2014-05-08, 03:21:04,VALID,1008.4,VALID,0,INVALID,111.008,VALID,0,VALID,24.3974,VALID,276,VALID,0,
2014-05-08, 03:22:04,VALID,1008.38,VALID,0,INVALID,111,VALID,0.112112,VALID,24.3956,VALID,276,VALID,0,
2014-05-08, 03:23:04,VALID,1008.33,VALID,0,INVALID,111.016,VALID,0,VALID,24.3956,VALID,276,VALID,0,
2014-05-08, 03:24:04,VALID,1008.34,VALID,0,INVALID,111.046,VALID,0,VALID,24.3956,VALID,276,VALID,0,
2014-05-08, 03:25:04,VALID,1008.32,VALID,0,INVALID,111.046,VALID,0.112112,VALID,24.3974,VALID,276,VALID,0,
2014-05-08, 03:26:04,VALID,1008.31,VALID,0,INVALID,111.061,VALID,0,VALID,24.3974,VALID,276,VALID,0,
2014-05-08, 03:27:04,VALID,1008.31,VALID,0,INVALID,111.023,VALID,0,VALID,24.3974,VALID,276,VALID,0,
2014-05-08, 03:28:04,VALID,1008.29,VALID,0,INVALID,111.039,VALID,0,VALID,24.3974,VALID,276,VALID,0,
2014-05-08, 03:29:04,VALID,1008.26,VALID,0,INVALID,111.039,VALID,0,VALID,24.3761,VALID,276,VALID,0,
2014-05-08, 03:30:04,VALID,1008.25,VALID,0,INVALID,111.031,VALID,0,VALID,24.3761,VALID,276,VALID,0,
2014-05-08, 03:31:04,VALID,1008.26,VALID,0,INVALID,111.031,VALID,0,VALID,24.4169,VALID,276,VALID,0,
2014-05-08, 03:32:04,VALID,1008.28,VALID,0,INVALID,111.016,VALID,0,VALID,24.3956,VALID,276,VALID,0,
2014-05-08, 03:33:04,VALID,1008.29,VALID,0,INVALID,110.993,VALID,0,VALID,24.3956,VALID,276,VALID,0,
2014-05-08, 03:34:04,VALID,1008.32,VALID,0,INVALID,111.008,VALID,0.112112,VALID,24.415,VALID,276,VALID,0,
2014-05-08, 03:35:04,VALID,1008.36,VALID,0,INVALID,111.031,VALID,0,VALID,24.4364,VALID,276,VALID,0,
2014-05-08, 03:36:04,VALID,1008.35,VALID,0,INVALID,111.046,VALID,0,VALID,24.4364,VALID,276,VALID,0,
2014-05-08, 03:37:04,VALID,1008.35,VALID,0,INVALID,111.039,VALID,0,VALID,24.415,VALID,276,VALID,0,
2014-05-08, 03:38:04,VALID,1008.33,VALID,0,INVALID,111.031,VALID,0,VALID,24.4345,VALID,276,VALID,0,
2014-05-08, 03:39:04,VALID,1008.35,VALID,0,INVALID,111.031,VALID,0,VALID,24.4345,VALID,276,VALID,0,
2014-05-08, 03:40:04,VALID,1008.35,VALID,0,INVALID,111.031,VALID,0,VALID,24.454,VALID,276,VALID,0,
2014-05-08, 03:41:04,VALID,1008.32,VALID,0,INVALID,111.046,VALID,0,VALID,24.4559,VALID,276,VALID,0,
2014-05-08, 03:42:04,VALID,1008.34,VALID,0,INVALID,111.046,VALID,0,VALID,24.4735,VALID,276,VALID,0,
2014-05-08, 03:43:04,VALID,1008.36,VALID,0,INVALID,111.069,VALID,0,VALID,24.4735,VALID,276,VALID,0,
2014-05-08, 03:44:04,VALID,1008.34,VALID,0,INVALID,111.069,VALID,0,VALID,24.454,VALID,276,VALID,0,
2014-05-08, 03:45:04,VALID,1008.39,VALID,0,INVALID,111.046,VALID,0,VALID,24.4754,VALID,276,VALID,0,
2014-05-08, 03:46:04,VALID,1008.41,VALID,0,INVALID,111.077,VALID,0,VALID,24.4345,VALID,276,VALID,0,
2014-05-08, 03:47:04,VALID,1008.45,VALID,0,INVALID,111.061,VALID,0,VALID,24.4132,VALID,276,VALID,0,
2014-05-08, 03:48:04,VALID,1008.45,VALID,0,INVALID,111.069,VALID,0,VALID,24.4345,VALID,276,VALID,0,
2014-05-08, 03:49:04,VALID,1008.42,VALID,0,INVALID,111.061,VALID,0,VALID,24.454,VALID,276,VALID,0,
2014-05-08, 03:50:04,VALID,1008.48,VALID,0,INVALID,111.039,VALID,0,VALID,24.454,VALID,276,VALID,0,